Lid_Strength_Index
3 3 3 3 3 3 3 3 4 4 4 4 4 4 4 4 5 7 10 8 6 3 1 5 5 7 8 11 10 11 16 18 16 15 13 12 12 9 10 11 11 10 7 4 3
3 4 4 4 4 3 3 4 4 4 4 4 4 4 4 4 7 9 6 3 2 2 5 8 8 8 11 12 11 13 17 16 13 12 13 13 12 11 10 10 10 14 8 3 3
4 4 4 4 4 4 4 4 5 4 4 4 4 4 4 5 11 11 3 -1 2 2 5 7 7 9 13 13 12 13 15 13 12 11 11 12 11 10 11 11 10 13 13 10 6
5 4 4 4 4 4 4 5 4 5 4 4 4 4 4 7 17 9 -1 0 -1 3 4 6 8 11 13 14 12 15 13 12 11 10 11 12 11 11 11 10 8 8 8 11 9
5 5 5 5 5 4 5 5 5 5 5 5 5 4 6 11 11 7 3 4 2 4 6 8 10 11 14 13 13 15 13 11 11 11 11 10 11 11 11 9 8 8 7 8 10
6 6 6 6 6 5 5 5 5 5 5 5 5 4 8 14 8 7 7 6 3 5 6 8 8 10 12 12 13 12 11 11 11 11 12 12 10 11 10 9 9 8 8 8 8
6 6 6 6 6 6 5 5 5 5 6 5 5 7 10 12 7 7 7 9 8 5 6 5 7 8 10 13 11 11 13 12 12 11 12 11 12 12 10 9 9 9 8 7 7
6 6 6 6 6 6 5 5 5 5 5 5 5 8 12 7 6 7 7 8 7 7 6 5 6 9 12 11 11 14 13 15 13 12 11 11 15 11 9 10 10 9 9 8 7
6 6 6 6 6 6 5 5 5 5 5 5 8 8 13 6 7 6 6 8 7 7 5 4 8 10 11 13 15 15 18 17 15 12 12 13 15 10 9 10 10 10 9 8 8
6 6 6 5 5 5 5 5 5 6 5 5 6 10 9 10 7 5 5 6 7 7 7 7 10 12 13 14 18 17 18 16 16 13 13 13 15 11 10 10 10 10 10 9 8
6 5 5 5 5 5 7 8 13 12 8 10 9 9 8 6 5 6 5 6 7 7 10 9 12 15 13 13 13 14 15 16 15 12 12 13 13 11 10 11 11 11 10 10 9
5 5 5 5 5 5 7 11 11 10 14 9 9 8 7 6 9 7 5 8 9 11 9 11 13 11 11 12 13 13 15 16 14 12 13 13 13 11 10 10 11 10 10 10 9
5 5 5 5 5 8 11 11 8 9 14 12 9 9 7 6 8 8 6 8 9 10 11 12 11 9 11 12 13 14 15 16 15 11 12 13 14 13 10 10 10 10 9 9 9
5 5 5 5 9 11 11 9 8 7 14 12 9 7 5 5 8 4 4 7 9 11 10 11 8 10 11 12 12 15 12 13 13 13 17 12 19 14 12 11 10 9 10 7 6
5 5 5 6 9 10 9 7 5 7 19 9 7 3 4 7 7 6 4 6 10 10 9 12 10 10 12 12 11 13 11 12 12 14 16 15 17 15 13 12 11 10 8 8 6
5 5 5 8 8 6 4 6 6 14 18 10 8 8 9 8 8 6 6 5 6 9 9 10 7 8 9 9 10 10 11 12 13 15 18 16 16 16 14 12 11 9 8 7 7
5 5 6 6 8 6 6 7 14 18 9 10 10 8 9 10 10 9 10 11 13 15 15 11 10 8 7 10 10 10 13 18 19 20 19 15 16 15 11 10 8 10 9 7 6
5 5 6 5 4 4 5 10 17 13 12 8 9 9 11 9 10 10 12 13 10 12 15 16 17 11 8 10 11 12 13 17 21 20 19 14 17 15 10 8 7 8 7 7 6
5 8 7 5 2 3 7 15 16 12 10 11 10 12 12 10 10 11 12 13 11 10 16 16 15 9 8 8 8 11 13 12 15 15 18 16 13 10 9 10 9 9 8 8 8
9 9 8 3 2 3 10 13 11 8 8 10 14 11 15 12 13 12 12 10 11 9 9 13 17 10 9 8 8 9 9 14 14 20 21 18 16 14 13 12 10 9 9 9 8
10 10 7 4 1 6 13 12 10 7 8 11 13 13 13 13 12 13 13 10 9 10 9 11 14 13 10 11 12 12 12 12 13 15 19 21 18 12 12 11 10 9 9 8 7
8 14 6 3 9 9 11 10 8 9 7 9 9 11 13 12 13 14 13 11 8 9 12 10 13 17 14 9 8 10 11 11 16 18 15 16 17 10 11 10 9 9 8 8 7
10 9 4 3 12 11 9 10 9 9 9 10 11 10 10 12 14 12 12 8 8 9 11 11 14 18 17 13 11 12 11 11 12 14 17 18 18 10 9 9 8 9 8 7 6
8 11 8 7 8 9 11 11 11 8 9 8 9 9 11 12 11 13 12 10 8 9 8 9 13 16 19 16 13 14 12 11 12 17 16 16 16 13 11 10 9 8 8 8 8
7 9 8 12 10 10 9 11 11 12 9 8 10 10 12 14 12 13 11 10 9 8 9 10 15 14 13 12 11 12 12 11 13 12 15 15 15 13 11 10 9 8 8 9 9
9 8 7 8 9 10 10 10 11 10 10 11 12 10 10 13 12 13 12 11 12 10 11 10 15 13 15 12 11 14 12 11 11 12 12 13 14 9 9 8 8 8 7 9 8
4 3 6 8 10 11 11 11 11 10 9 8 9 10 11 10 8 8 8 8 9 11 12 12 14 15 18 13 14 17 13 13 13 12 12 15 12 9 10 9 8 8 7 8 8